15min,AgWx,beryljct,423,25FEB2020:00:00:00,24.8,12.84,24.3,25.0,28.8,31.1,25.0,52,63,45,0.288,13.0,14.6,12.1,7.19,7.2,334,33,11.3,0.00014,0.00018,33.6,34.9,23,0,.,.,9.37,0.00,0.00
15min,AgWx,beryljct,423,25FEB2020:00:15:00,24.9,12.83,25.3,24.8,24.3,24.9,23.5,65,68,62,0.282,14.3,14.8,13.6,5.831,6.0,353,20,7.4,0.00005,0.00006,33.6,34.9,23,0,.,.,9.37,0.00,0.00
15min,AgWx,beryljct,423,25FEB2020:00:30:00,24.5,12.83,23.9,24.6,24.6,25.3,23.6,62,67,60,0.275,13.5,14.8,13.1,3.793,4.7,343,17,6.3,0.00003,0.00005,33.6,34.9,23,0,.,.,9.37,0.00,0.00
15min,AgWx,beryljct,423,25FEB2020:00:45:00,23.8,12.8,22.8,22.3,22.7,24.4,21.2,68,74,62,0.294,13.7,14.9,12.9,1.995,3.1,326,70,4.9,-0.00003,-0.00002,33.6,34.9,23,0,.,.,9.37,0.00,0.00
15min,AgWx,beryljct,423,25FEB2020:01:00:00,23.0,12.81,25.0,23.8,23.3,24.9,22.1,68,74,61,0.275,14.1,15.2,12.6,4.319,2.7,322,25,4.6,-0.00005,-0.00005,33.6,34.9,23,0,.,.,9.37,0.00,0.00
15min,AgWx,beryljct,423,25FEB2020:01:15:00,22.8,12.8,20.6,20.8,22.9,25.4,20.8,66,74,59,0.284,13.1,13.9,11.8,5.305,7.6,1.8,15,11.1,0.00006,0.00008,33.6,34.9,23,0,.,.,9.37,0.00,0.00
15min,AgWx,beryljct,423,25FEB2020:01:30:00,22.2,12.78,20.2,19.3,19.2,20.8,18.4,81,85,74,0.307,14.2,15.6,13.8,5.656,5.2,322,30,7.1,-0.00002,-0.00001,33.6,34.9,23,0,.,.,9.37,0.00,0.00
15min,AgWx,beryljct,423,25FEB2020:01:45:00,21.5,12.78,21.0,20.7,20.4,20.8,19.3,83,86,81,0.320,16.1,16.6,15.7,1.841,3.1,291,12,6.2,-0.00006,-0.00007,33.6,34.9,23,0,.,.,9.37,0.00,0.00
15min,AgWx,beryljct,423,25FEB2020:02:00:00,20.9,12.77,21.5,20.8,20.7,21.1,20.4,84,85,83,0.319,16.5,17.1,16.1,1.008,0.6,324,72,2.3,-0.00015,-0.00021,33.6,34.9,23,0,.,.,9.37,0.00,0.00
15min,AgWx,beryljct,423,25FEB2020:02:15:00,20.4,12.76,22.0,21.5,20.9,21.5,20.4,83,84,81,0.320,16.4,16.8,16.0,3.793,1.3,355,72,4.0,-0.00012,-0.00015,33.5,34.9,23,0,.,.,9.37,0.00,0.00
15min,AgWx,beryljct,423,25FEB2020:02:30:00,20.3,12.75,22.1,21.9,21.9,22.2,21.5,80,81,80,0.320,16.8,17.0,16.4,3.047,2.8,323,35,3.9,-0.00007,-0.00008,33.5,34.9,23,0,.,.,9.37,0.00,0.00
15min,AgWx,beryljct,423,25FEB2020:02:45:00,20.4,12.75,21.5,20.8,20.6,21.9,19.8,82,85,80,0.323,16.0,16.9,15.1,3.661,3.2,333,19,4.1,-0.00006,-0.00006,33.5,34.9,23,0,.,.,9.37,0.00,0.00
15min,AgWx,beryljct,423,25FEB2020:03:00:00,20.3,12.74,21.7,21.2,21.1,21.6,20.8,83,84,82,0.322,16.8,17.3,16.4,2.938,3.0,310,5.0,3.7,-0.00007,-0.00008,33.5,34.8,23,0,.,.,9.37,0.00,0.00
15min,AgWx,beryljct,423,25FEB2020:03:15:00,20.2,12.72,23.3,22.5,21.9,22.5,21.2,82,83,79,0.327,17.1,17.5,16.7,5.283,2.8,313,17,5.3,-0.00007,-0.00008,33.5,34.8,23,0,.,.,9.37,0.00,0.00
15min,AgWx,beryljct,423,25FEB2020:03:30:00,20.5,12.73,21.3,21.5,22.3,22.8,21.5,77,79,76,0.312,16.3,17.1,15.7,4.604,4.0,7.3,17,6.7,-0.00003,-0.00003,33.5,34.8,24,0,.,.,9.37,0.00,0.00
15min,AgWx,beryljct,423,25FEB2020:03:45:00,20.6,12.72,20.9,20.7,21.3,22.3,20.5,78,80,75,0.292,15.5,16.1,14.3,5.327,5.3,343,18,7.7,-0.00001,-0.00000,33.5,34.8,23,0,.,.,9.37,0.00,0.00
15min,AgWx,beryljct,423,25FEB2020:04:00:00,20.6,12.7,21.5,20.8,20.4,20.8,19.9,80,82,77,0.302,15.2,15.8,14.5,4.077,4.6,314,9.3,5.7,-0.00003,-0.00002,33.4,34.8,23,0,.,.,9.37,0.00,0.00
15min,AgWx,beryljct,423,25FEB2020:04:15:00,20.4,12.7,20.5,20.5,20.6,20.9,20.4,79,80,78,0.300,15.1,15.3,14.8,4.582,4.9,308,5.4,5.9,-0.00002,-0.00001,33.4,34.8,23,0,.,.,9.37,0.00,0.00
15min,AgWx,beryljct,423,25FEB2020:04:30:00,20.2,12.69,20.4,19.9,20.1,20.5,19.9,79,80,78,0.293,14.7,15.0,14.3,4.779,4.7,318,4.5,5.9,-0.00002,-0.00002,33.4,34.8,23,0,.,.,9.37,0.00,0.00
15min,AgWx,beryljct,423,25FEB2020:04:45:00,19.8,12.69,20.0,19.7,19.5,20.0,19.2,80,81,79,0.296,14.4,14.8,14.2,5.086,4.6,310,9.5,5.3,-0.00003,-0.00002,33.4,34.8,22,0,.,.,9.38,0.01,0.00
15min,AgWx,beryljct,423,25FEB2020:05:00:00,19.7,12.68,21.1,21.1,20.4,21.2,19.6,78,81,74,0.287,14.5,14.8,14.0,5.634,5.5,295,6.4,6.2,-0.00001,-0.00000,33.4,34.8,23,0,.,.,9.38,0.00,0.00
15min,AgWx,beryljct,423,25FEB2020:05:15:00,19.7,12.68,22.1,21.5,21.2,21.5,20.8,72,74,70,0.278,13.5,14.1,13.1,3.968,4.6,322,12,6.9,-0.00000,0.00000,33.4,34.8,22,0,.,.,9.38,0.00,0.00
15min,AgWx,beryljct,423,25FEB2020:05:30:00,19.7,12.66,20.6,20.9,21.3,21.8,20.9,70,71,69,0.269,12.9,13.3,12.5,3.332,4.2,328,9.4,5.6,-0.00001,0.00000,33.4,34.8,23,0,.,.,9.38,0.00,0.00
15min,AgWx,beryljct,423,25FEB2020:05:45:00,19.7,12.66,22.5,22.4,21.3,22.5,20.6,70,72,66,0.273,13.0,13.4,12.5,4.998,4.0,351,22,7.2,-0.00001,-0.00000,33.4,34.8,22,0,.,.,9.38,0.00,0.00
15min,AgWx,beryljct,423,25FEB2020:06:00:00,20.0,12.65,23.0,22.2,22.5,22.8,22.1,66,67,65,0.274,12.9,13.1,12.6,3.814,4.3,350,30,13.4,0.00001,0.00002,33.3,34.8,22,0,.,.,9.38,0.00,0.00
15min,AgWx,beryljct,423,25FEB2020:06:15:00,20.1,12.64,21.8,21.6,21.9,22.4,21.2,68,70,67,0.274,13.0,13.5,12.6,4.647,3.1,331,16,4.7,-0.00003,-0.00003,33.3,34.8,22,0,.,.,9.38,0.00,0.00
15min,AgWx,beryljct,423,25FEB2020:06:30:00,20.0,12.65,20.3,20.4,21.0,21.6,20.1,71,74,69,0.277,13.0,13.3,12.6,4.056,3.8,325,14,6.3,0.00013,0.00023,33.3,34.8,22,0,.,.,9.37,0.00,0.00
15min,AgWx,beryljct,423,25FEB2020:06:45:00,19.8,12.63,19.7,19.5,19.9,20.4,19.5,74,75,73,0.271,12.9,13.2,12.7,4.954,4.6,323,9.7,6.2,0.00013,0.00023,33.3,34.8,22,0,.,.,9.37,0.00,0.00
15min,AgWx,beryljct,423,25FEB2020:07:00:00,19.5,12.64,20.4,19.9,19.6,19.9,19.3,75,76,74,0.275,13.0,13.2,12.8,5.174,4.8,322,13,6.1,0.00013,0.00022,33.3,34.8,22,0,.,.,9.38,0.00,0.00
15min,AgWx,beryljct,423,25FEB2020:07:15:00,19.2,12.64,19.4,19.0,19.6,20.1,19.0,74,75,73,0.268,12.6,13.1,12.3,4.823,5.0,340,11,6.1,0.00015,0.00025,33.3,34.8,23,4,.,.,9.38,0.00,0.00
15min,AgWx,beryljct,423,25FEB2020:07:30:00,19.1,12.73,21.0,20.4,19.5,20.4,18.8,75,77,73,0.273,12.8,13.1,12.4,4.713,5.0,357,11,7.0,0.00019,0.00029,33.2,34.7,22,24,.,.,9.37,0.00,0.00
15min,AgWx,beryljct,423,25FEB2020:07:45:00,19.7,12.91,20.6,20.4,20.3,20.6,20.1,73,75,72,0.280,13.1,13.5,12.8,2.368,3.8,342,16,7.5,0.00028,0.00038,33.2,34.8,23,66,.,.,9.38,0.00,0.00
15min,AgWx,beryljct,423,25FEB2020:08:00:00,20.7,13.19,22.3,21.9,21.2,22.0,20.4,74,74,73,0.298,14.1,15.0,13.5,8.62,4.3,3.2,25,8.7,0.00038,0.00048,33.2,34.7,22,110,.,.,9.38,0.00,0.00
15min,AgWx,beryljct,423,25FEB2020:08:15:00,22.2,13.77,23.5,23.2,22.5,23.2,21.9,73,74,71,0.303,15.2,15.6,14.8,8.97,8.2,38,8.2,10.5,0.00052,0.00069,33.2,34.7,22,156,.,.,9.37,0.00,0.00
15min,AgWx,beryljct,423,25FEB2020:08:30:00,23.7,14.87,24.1,23.7,23.5,23.8,23.2,72,73,71,0.313,15.7,16.1,15.2,9.89,9.2,38,6.8,12.1,0.00064,0.00085,33.2,34.7,23,204,.,.,9.37,0.00,0.00
15min,AgWx,beryljct,423,25FEB2020:08:45:00,25.1,14.88,25.1,24.8,24.2,24.9,23.7,71,72,68,0.312,16.1,16.5,15.5,9.47,9.6,39,6.2,11.8,0.00076,0.00099,33.2,34.7,23,254,.,.,9.37,0.00,0.00
15min,AgWx,beryljct,423,25FEB2020:09:00:00,26.6,14.83,26.2,26.0,25.4,26.0,24.8,69,70,67,0.324,16.6,17.4,16.0,9.76,7.5,33,9.8,11.6,0.00092,0.00114,33.2,34.7,23,303,.,.,9.37,0.00,0.00
15min,AgWx,beryljct,423,25FEB2020:09:15:00,28.1,14.8,26.9,26.9,26.5,27.0,25.9,68,69,66,0.336,17.2,17.9,16.3,8.35,9.3,35,9.1,12.9,0.00106,0.00133,33.2,34.7,22,352,.,.,9.37,0.00,0.00
15min,AgWx,beryljct,423,25FEB2020:09:30:00,29.3,14.82,27.0,26.8,26.7,27.2,26.3,65,67,63,0.321,16.5,17.8,15.5,10.43,9.9,16,11,12.6,0.00119,0.00150,33.1,34.7,23,399,.,.,9.37,0.00,0.00
15min,AgWx,beryljct,423,25FEB2020:09:45:00,30.2,14.79,29.5,28.2,27.5,28.3,26.6,64,67,62,0.333,17.0,18.3,16.0,10.02,11.6,23,13,16.9,0.00131,0.00167,33.1,34.7,22,446,.,.,9.37,0.00,0.00
15min,AgWx,beryljct,423,25FEB2020:10:00:00,31.1,14.76,28.2,28.3,28.1,28.7,27.5,64,67,61,0.334,17.3,18.9,15.8,15.72,14.4,34,9.6,17.8,0.00141,0.00182,33.1,34.7,22,490,.,.,9.37,0.00,0.00
15min,AgWx,beryljct,423,25FEB2020:10:15:00,31.7,14.82,28.9,29.0,28.6,29.2,28.0,63,64,61,0.336,17.5,18.3,16.9,18.9,15.7,40,7.6,20.3,0.00151,0.00195,33.1,34.7,22,532,.,.,9.37,0.00,0.00
15min,AgWx,beryljct,423,25FEB2020:10:30:00,32.2,14.33,29.8,29.3,29.1,29.6,28.6,62,65,60,0.334,17.9,19.0,16.7,15.94,17.5,39,8.2,23.5,0.00158,0.00206,33.1,34.7,22,569,.,.,9.37,0.00,0.00
15min,AgWx,beryljct,423,25FEB2020:10:45:00,32.7,14.35,29.7,29.6,29.6,30.2,29.2,60,62,58,0.331,17.5,18.3,16.3,15.96,18.1,47,8.3,22.7,0.00170,0.00222,33.1,34.7,22,604,.,.,9.37,0.00,0.00
15min,AgWx,beryljct,423,25FEB2020:11:00:00,33.1,14.31,30.5,30.2,30.2,30.9,29.7,59,63,57,0.328,17.8,19.7,16.8,17.19,18.1,47,8.0,23.0,0.00180,0.00234,33.1,34.6,22,634,.,.,9.37,0.00,0.00
15min,AgWx,beryljct,423,25FEB2020:11:15:00,33.6,14.32,31.9,31.1,31.0,31.7,30.0,59,62,57,0.349,18.5,20.1,16.5,14.97,15.8,49,7.6,23.0,0.00194,0.00247,33.1,34.7,22,662,.,.,9.37,0.00,0.00
15min,AgWx,beryljct,423,25FEB2020:11:30:00,34.2,14.29,31.2,31.5,31.2,31.7,30.6,58,60,57,0.351,18.3,19.3,17.1,16.55,16.4,45,10,21.6,0.00200,0.00255,33.1,34.6,22,685,.,.,9.37,0.00,0.00
15min,AgWx,beryljct,423,25FEB2020:11:45:00,34.7,14.3,32.4,31.9,31.6,32.1,31.2,57,59,55,0.343,18.2,19.1,17.0,14.93,16.6,49,9.5,22.3,0.00208,0.00266,33.1,34.6,22,706,.,.,9.37,0.00,0.00
15min,AgWx,beryljct,423,25FEB2020:12:00:00,35.1,14.37,33.1,32.1,32.0,32.7,31.3,56,58,54,0.346,18.1,19.8,16.4,13.53,16.5,50,10,21.7,0.00215,0.00275,33.0,34.6,22,722,.,.,9.37,0.00,0.00
15min,AgWx,beryljct,423,25FEB2020:12:15:00,35.5,14.27,32.6,32.7,32.6,33.3,32.0,58,59,55,0.348,19.5,20.5,18.2,17.25,15.8,50,8.1,20.5,0.00220,0.00277,33.1,34.6,22,734,.,.,9.37,0.00,0.00
15min,AgWx,beryljct,423,25FEB2020:12:30:00,35.8,14.24,32.1,32.5,32.5,32.9,32.3,55,57,54,0.348,18.3,19.2,17.7,19.18,17.4,52,8.5,20.6,0.00222,0.00285,33.0,34.6,22,742,.,.,9.36,0.00,0.00
15min,AgWx,beryljct,423,25FEB2020:12:45:00,36.0,14.31,33.3,33.3,32.9,33.4,32.3,57,59,54,0.368,19.2,20.3,17.6,16.11,16.0,48,9.3,20.1,0.00225,0.00286,33.0,34.6,22,745,.,.,9.36,0.00,0.00
15min,AgWx,beryljct,423,25FEB2020:13:00:00,36.3,14.28,34.2,33.7,33.5,34.1,33.2,56,58,54,0.360,19.4,21.0,18.3,16.27,15.4,52,8.4,18.8,0.00232,0.00293,33.0,34.6,22,746,.,.,9.37,0.00,0.00
15min,AgWx,beryljct,423,25FEB2020:13:15:00,36.7,14.23,33.7,34.2,33.9,35.1,33.1,55,59,52,0.370,19.6,22.2,17.5,18.11,14.9,54,10,20.0,0.00235,0.00297,33.0,34.6,22,743,.,.,9.36,0.00,0.00
15min,AgWx,beryljct,423,25FEB2020:13:30:00,37.0,14.24,35.1,34.3,33.9,34.4,33.3,53,55,50,0.362,18.6,19.8,16.7,16.66,17.3,52,9.5,21.4,0.00232,0.00301,33.0,34.6,22,735,.,.,9.36,0.00,0.00
15min,AgWx,beryljct,423,25FEB2020:13:45:00,37.3,14.22,34.5,34.6,34.3,35.1,33.7,51,54,50,0.345,18.2,19.8,17.2,17.1,17.0,48,8.4,21.2,0.00236,0.00307,33.0,34.6,22,723,.,.,9.36,0.00,0.00
15min,AgWx,beryljct,423,25FEB2020:14:00:00,37.7,14.2,34.4,34.9,34.7,35.4,34.1,52,55,49,0.359,18.7,20.6,17.1,19.05,16.1,57,8.8,20.8,0.00236,0.00305,33.0,34.6,22,707,.,.,9.36,0.00,0.00
15min,AgWx,beryljct,423,25FEB2020:14:15:00,38.1,14.21,35.4,35.1,34.8,35.3,34.3,50,52,48,0.351,18.0,19.2,16.6,16.22,17.0,52,8.6,20.7,0.00233,0.00307,33.0,34.6,22,687,.,.,9.36,0.00,0.00
15min,AgWx,beryljct,423,25FEB2020:14:30:00,38.4,14.18,34.9,35.1,35.0,35.4,34.5,50,53,48,0.347,18.2,19.8,17.1,18.39,17.3,57,9.3,22.9,0.00228,0.00302,33.0,34.6,22,665,.,.,9.36,0.00,0.00
15min,AgWx,beryljct,423,25FEB2020:14:45:00,38.7,14.17,35.6,35.5,35.4,35.9,35.0,51,55,48,0.346,19.2,21.3,17.7,15.65,16.7,57,9.2,21.0,0.00216,0.00287,33.0,34.5,22,612,.,.,9.36,0.00,0.00
15min,AgWx,beryljct,423,25FEB2020:15:00:00,38.9,14.16,36.8,35.6,35.3,35.9,34.8,49,51,46,0.349,17.8,19.5,16.3,12.85,17.3,58,10,23.2,0.00218,0.00294,33.0,34.5,22,607,.,.,9.36,0.00,0.00
15min,AgWx,beryljct,423,25FEB2020:15:15:00,39.1,14.13,36.0,35.5,35.5,36.0,35.0,49,50,46,0.346,18.1,19.3,16.7,16.27,17.3,54,10,23.2,0.00209,0.00284,33.0,34.5,22,569,.,.,9.36,0.00,0.00
15min,AgWx,beryljct,423,25FEB2020:15:30:00,39.2,14.18,35.6,35.1,35.4,35.9,35.0,49,51,47,0.336,18.1,19.2,16.7,16.2,16.7,56,9.2,21.4,0.00198,0.00271,33.0,34.5,22,526,.,.,9.36,0.00,0.00
15min,AgWx,beryljct,423,25FEB2020:15:45:00,39.2,14.13,35.8,35.5,35.4,36.1,34.9,48,52,46,0.330,17.8,20.1,16.0,15.06,17.5,59,10,22.4,0.00192,0.00267,33.0,34.5,22,498,.,.,9.35,0.00,0.00
15min,AgWx,beryljct,423,25FEB2020:16:00:00,39.2,14.17,35.9,35.8,35.6,35.9,35.2,48,50,45,0.341,17.6,19.1,16.1,16.73,16.7,52,9.1,20.8,0.00183,0.00258,33.0,34.5,22,456,.,.,9.35,0.00,0.00
15min,AgWx,beryljct,423,25FEB2020:16:15:00,39.2,14.13,35.9,35.1,35.4,35.8,35.0,47,49,46,0.320,17.2,18.5,16.3,15.59,16.9,57,8.4,20.5,0.00172,0.00247,33.0,34.5,22,412,.,.,9.35,0.00,0.00
15min,AgWx,beryljct,423,25FEB2020:16:30:00,39.0,14.15,35.2,35.0,35.1,35.5,34.8,47,49,45,0.318,16.8,18.1,15.5,18.28,17.1,55,8.5,21.0,0.00160,0.00234,33.0,34.5,22,365,.,.,9.35,0.00,0.00
15min,AgWx,beryljct,423,25FEB2020:16:45:00,38.7,14.14,34.7,34.5,34.9,35.3,34.5,47,49,46,0.308,16.6,17.9,15.7,19.31,16.7,57,7.9,22.1,0.00146,0.00219,33.0,34.5,22,317,.,.,9.35,0.01,0.00
15min,AgWx,beryljct,423,25FEB2020:17:00:00,38.4,14.17,34.7,34.3,34.7,35.0,34.3,48,50,46,0.313,17.0,18.4,15.7,15.28,15.8,58,6.6,19.7,0.00130,0.00198,33.0,34.5,22,269,.,.,9.35,0.00,0.00
15min,AgWx,beryljct,423,25FEB2020:17:15:00,37.9,14.18,34.4,34.0,34.2,34.4,34.0,48,49,46,0.313,16.4,17.4,15.5,14.1,16.1,58,7.4,21.0,0.00117,0.00185,33.1,34.5,22,220,.,.,9.35,0.00,0.00
15min,AgWx,beryljct,423,25FEB2020:17:30:00,37.3,14.22,33.9,33.6,33.8,34.1,33.6,49,50,47,0.320,16.5,17.0,15.8,16.11,15.3,57,8.0,19.4,0.00040,0.00044,33.1,34.5,22,173,.,.,9.35,0.00,0.00
15min,AgWx,beryljct,423,25FEB2020:17:45:00,36.7,14.18,33.7,33.3,33.5,33.7,33.2,51,52,49,0.331,17.1,17.7,16.5,15.43,13.6,57,6.9,16.7,0.00034,0.00039,33.1,34.5,22,127,.,.,9.35,0.00,0.00
15min,AgWx,beryljct,423,25FEB2020:18:00:00,35.9,14.24,33.1,32.9,33.1,33.4,32.8,51,53,49,0.313,17.1,17.8,16.0,16.4,13.0,58,7.2,18.1,0.00030,0.00034,33.1,34.5,22,84,.,.,9.35,0.00,0.00
15min,AgWx,beryljct,423,25FEB2020:18:15:00,34.8,13.18,32.1,32.0,32.4,32.9,32.0,51,52,49,0.313,16.2,16.6,15.8,11.55,12.8,57,7.4,17.1,0.00026,0.00030,33.1,34.5,22,23,.,.,9.35,0.00,0.00
15min,AgWx,beryljct,423,25FEB2020:18:30:00,33.5,13.1,31.5,31.2,31.6,32.1,31.2,52,54,50,0.319,16.1,16.6,15.5,10.85,10.7,56,7.3,16.5,0.00021,0.00025,33.1,34.5,22,7,.,.,9.36,0.00,0.00
15min,AgWx,beryljct,423,25FEB2020:18:45:00,32.4,13.06,31.1,30.8,31.0,31.3,30.7,54,55,53,0.318,16.4,16.6,16.1,9.78,10.0,53,8.4,13.6,0.00018,0.00022,33.1,34.5,22,1,.,.,9.36,0.00,0.00
15min,AgWx,beryljct,423,25FEB2020:19:00:00,31.5,13.03,31.3,30.8,30.5,30.9,30.3,55,57,54,0.312,16.4,16.8,16.0,12.28,8.6,53,6.8,13.4,0.00015,0.00019,33.1,34.5,22,0,.,.,9.36,0.00,0.00
15min,AgWx,beryljct,423,25FEB2020:19:15:00,30.8,13.01,30.1,30.1,30.5,30.9,30.1,55,57,53,0.321,16.2,16.6,15.8,7.607,9.0,54,7.2,12.3,0.00016,0.00020,33.1,34.4,22,0,.,.,9.36,0.00,0.00
15min,AgWx,beryljct,423,25FEB2020:19:30:00,30.3,13,29.5,29.6,29.8,30.1,29.5,58,59,57,0.325,16.6,16.9,16.3,5.656,7.0,60,10,10.0,0.00011,0.00014,33.1,34.5,22,0,.,.,9.35,0.00,0.00
15min,AgWx,beryljct,423,25FEB2020:19:45:00,29.6,12.98,29.3,29.1,29.2,29.7,28.9,60,60,58,0.327,16.9,17.1,16.6,6.072,5.7,66,6.5,8.1,0.00007,0.00010,33.1,34.4,23,0,.,.,9.36,0.00,0.00
15min,AgWx,beryljct,423,25FEB2020:20:00:00,29.0,12.96,29.1,28.3,28.7,29.0,28.3,61,62,60,0.327,17.0,17.2,16.7,4.472,5.0,52,16,6.5,0.00005,0.00007,33.1,34.4,22,0,.,.,9.36,0.00,0.00
15min,AgWx,beryljct,423,25FEB2020:20:15:00,28.5,12.96,29.7,29.3,28.8,29.3,28.4,62,63,59,0.323,17.2,17.5,16.8,5.875,5.5,20,9.3,6.8,0.00005,0.00008,33.1,34.4,22,0,.,.,9.36,0.00,0.00
15min,AgWx,beryljct,423,25FEB2020:20:30:00,28.3,12.95,29.5,28.6,28.4,29.4,27.5,62,65,59,0.321,16.9,17.3,16.5,7.936,6.2,350,12,8.0,0.00007,0.00010,33.1,34.4,22,0,.,.,9.36,0.00,0.00
15min,AgWx,beryljct,423,25FEB2020:20:45:00,28.1,12.93,28.2,28.0,28.6,29.2,28.0,58,60,56,0.309,15.5,16.5,15.2,8.15,7.8,3.2,9.4,9.7,0.00012,0.00015,33.1,34.4,23,0,.,.,9.36,0.00,0.00
15min,AgWx,beryljct,423,25FEB2020:21:00:00,28.0,12.92,27.5,27.5,27.7,28.0,27.3,62,64,60,0.319,16.3,16.8,15.9,5.678,7.3,359,6.5,9.7,0.00009,0.00012,33.1,34.4,22,0,.,.,9.36,0.00,0.00
15min,AgWx,beryljct,423,25FEB2020:21:15:00,27.7,12.92,26.9,26.8,27.1,27.5,26.8,65,67,63,0.330,17.0,17.4,16.6,5.634,6.8,359,7.0,8.8,0.00006,0.00009,33.1,34.4,23,0,.,.,9.36,0.01,0.00
15min,AgWx,beryljct,423,25FEB2020:21:30:00,27.1,12.91,25.0,24.6,25.6,26.8,24.6,72,76,67,0.342,17.8,18.1,17.3,5.656,5.0,340,11,7.1,0.00000,0.00002,33.0,34.4,22,0,.,.,9.36,0.00,0.00
15min,AgWx,beryljct,423,25FEB2020:21:45:00,26.3,12.9,25.2,25.0,24.8,25.1,24.5,75,76,73,0.334,17.9,18.3,17.4,4.823,5.0,348,13,6.8,-0.00001,0.00000,33.0,34.4,23,0,.,.,9.36,0.00,0.00
15min,AgWx,beryljct,423,25FEB2020:22:00:00,25.8,12.9,25.6,25.6,25.0,25.8,24.6,72,75,69,0.327,17.4,17.8,17.0,5.064,5.0,358,11,6.9,0.00000,0.00001,33.0,34.4,22,0,.,.,9.36,0.00,0.00
15min,AgWx,beryljct,423,25FEB2020:22:15:00,25.4,12.89,23.5,23.3,24.4,25.5,23.3,74,78,70,0.335,17.2,17.6,16.9,4.034,4.4,332,18,6.1,-0.00001,-0.00000,33.0,34.4,23,0,.,.,9.36,0.00,0.00
15min,AgWx,beryljct,423,25FEB2020:22:30:00,24.8,12.88,25.5,24.7,24.0,25.0,23.2,75,79,70,0.326,17.2,17.7,16.6,4.845,4.5,332,16,8.3,-0.00002,-0.00001,33.0,34.4,23,0,.,.,9.37,0.00,0.00
15min,AgWx,beryljct,423,25FEB2020:22:45:00,24.6,12.88,24.7,24.2,24.6,24.9,24.1,71,72,70,0.319,16.6,17.0,16.2,3.398,4.4,351,9.8,6.2,-0.00001,0.00001,33.0,34.4,22,0,.,.,9.36,0.00,0.00
15min,AgWx,beryljct,423,25FEB2020:23:00:00,24.1,12.86,24.6,23.7,23.3,24.3,22.9,76,78,72,0.324,16.8,17.0,16.5,4.341,2.5,316,12,4.3,-0.00007,-0.00008,33.0,34.4,23,0,.,.,9.37,0.01,0.00
15min,AgWx,beryljct,423,25FEB2020:23:15:00,23.8,12.84,24.5,24.4,24.4,25.2,23.7,70,75,67,0.314,16.1,16.8,15.4,3.179,4.1,329,19,5.5,-0.00001,-0.00000,33.0,34.4,22,0,.,.,9.36,0.00,0.00
15min,AgWx,beryljct,423,25FEB2020:23:30:00,23.7,12.84,25.4,25.4,24.6,25.4,23.9,69,72,65,0.302,15.9,16.5,15.2,4.713,4.2,335,13,5.5,-0.00001,0.00001,33.0,34.4,22,0,.,.,9.37,0.00,0.00
15min,AgWx,bigpiney,439,25FEB2020:00:00:00,6.1,12.66,6.7,5.6,3.2,5.6,0.7,78,80,75,0.156,-2.1,0.5,-5.1,4.012,4.9,168,11,6.0,-0.00001,-0.00001,29.1,30.1,11,0,0,0.0,5.83,0.00,0.00
15min,AgWx,bigpiney,439,25FEB2020:00:15:00,5.6,12.65,8.9,8.0,7.8,9.6,5.5,73,79,68,0.152,1.0,2.5,-0.6,4.362,4.4,234,33,7.5,-0.00001,-0.00001,29.1,30.1,11,0,0,0.0,5.83,0.00,0.00
15min,AgWx,bigpiney,439,25FEB2020:00:30:00,5.7,12.65,10.1,9.2,8.6,9.7,7.4,70,71,69,0.160,0.7,1.7,-0.8,3.551,4.1,280,14,5.8,-0.00001,-0.00000,29.1,30.2,11,0,0,0.0,5.83,0.00,0.00
15min,AgWx,bigpiney,439,25FEB2020:00:45:00,6.0,12.64,5.3,6.5,7.9,9.7,6.5,70,71,67,0.144,-0.0,1.8,-1.1,3.398,2.8,257,18,5.8,-0.00003,-0.00003,29.1,30.2,11,0,0,0.0,5.83,0.00,0.00
15min,AgWx,bigpiney,439,25FEB2020:01:00:00,6.0,12.63,5.9,5.9,6.3,6.7,5.6,72,73,70,0.144,-0.9,-0.5,-1.8,0.614,0.8,260,35,3.5,-0.00008,-0.00011,29.1,30.2,11,0,0,0.0,5.83,0.00,0.00
15min,AgWx,bigpiney,439,25FEB2020:01:15:00,5.6,12.62,2.7,2.5,3.9,5.9,2.5,72,74,71,0.124,-3.0,-1.2,-4.3,2.85,3.4,323,14,5.1,-0.00002,-0.00002,29.1,30.1,11,0,0,0.0,5.83,0.00,0.00
15min,AgWx,bigpiney,439,25FEB2020:01:30:00,5.0,12.62,2.1,1.6,2.3,3.1,1.5,75,76,73,0.120,-3.9,-2.7,-5.1,2.083,1.6,250,63,3.6,-0.00005,-0.00006,29.1,30.1,11,0,0,0.0,5.83,0.00,0.00
15min,AgWx,bigpiney,439,25FEB2020:01:45:00,4.4,12.6,9.8,8.0,4.1,8.0,1.5,76,77,74,0.163,-1.9,1.7,-4.9,2.411,2.3,208,32,3.4,-0.00004,-0.00005,29.1,30.2,11,0,0,0.0,5.83,0.00,0.00
15min,AgWx,bigpiney,439,25FEB2020:02:00:00,4.3,12.61,8.2,8.3,9.9,10.9,8.2,68,74,65,0.145,1.3,2.6,-0.9,3.464,2.8,261,22,6.3,-0.00003,-0.00003,29.1,30.1,11,0,0,0.0,5.83,0.00,0.00
15min,AgWx,bigpiney,439,25FEB2020:02:15:00,4.7,12.6,8.9,7.1,6.1,8.5,3.9,69,73,65,0.153,-1.9,0.4,-4.6,4.187,3.4,119,78,5.4,-0.00002,-0.00001,29.1,30.1,11,0,0,0.0,5.83,0.00,0.00
15min,AgWx,bigpiney,439,25FEB2020:02:30:00,4.9,12.6,7.2,7.8,9.0,10.9,7.2,67,73,64,0.144,0.2,1.9,-1.2,0.592,3.2,349,62,10.7,-0.00002,-0.00001,29.1,30.2,11,0,0,0.0,5.83,0.00,0.00
15min,AgWx,bigpiney,439,25FEB2020:02:45:00,5.1,12.59,6.1,5.8,6.8,7.7,5.8,68,70,66,0.139,-1.5,-0.9,-2.4,4.494,2.1,321,24,5.0,-0.00004,-0.00005,29.1,30.2,11,0,0,0.0,5.83,0.00,0.00
15min,AgWx,bigpiney,439,25FEB2020:03:00:00,5.1,12.58,4.5,3.6,3.7,5.9,2.6,72,73,70,0.131,-3.4,-1.7,-4.3,7.497,6.8,298,4.3,8.2,0.00001,0.00002,29.1,30.3,11,0,0,0.0,5.83,0.00,0.00
15min,AgWx,bigpiney,439,25FEB2020:03:15:00,4.8,12.57,4.4,4.1,4.2,4.5,3.6,72,73,72,0.132,-2.8,-2.5,-3.1,3.727,5.6,301,3.2,8.5,0.00000,0.00001,29.1,30.1,11,0,0,0.0,5.83,0.00,0.00
15min,AgWx,bigpiney,439,25FEB2020:03:30:00,4.4,12.56,3.0,3.4,3.3,4.1,2.1,72,74,71,0.129,-3.7,-2.8,-5.0,4.472,3.3,318,10,5.4,-0.00002,-0.00002,29.1,30.1,11,0,0,0.0,5.83,0.00,0.00
15min,AgWx,bigpiney,439,25FEB2020:03:45:00,3.9,12.56,4.2,3.0,1.8,3.3,0.4,73,76,71,0.128,-4.9,-3.3,-6.7,4.713,4.8,340,8.0,6.6,-0.00000,0.00000,29.1,30.2,11,0,0,0.0,5.83,0.00,0.00
15min,AgWx,bigpiney,439,25FEB2020:04:00:00,3.3,12.56,4.0,3.8,3.0,3.8,2.4,73,74,72,0.131,-3.8,-3.0,-4.6,3.157,3.0,353,12,4.8,-0.00002,-0.00002,29.1,30.2,11,0,0,0.0,5.83,0.00,0.00
15min,AgWx,bigpiney,439,25FEB2020:04:15:00,3.0,12.54,5.1,4.1,4.7,5.6,3.8,71,73,68,0.128,-2.8,-2.0,-4.0,2.28,3.8,335,18,6.6,-0.00001,-0.00001,29.0,30.2,11,0,0,0.0,5.83,0.00,0.00
15min,AgWx,bigpiney,439,25FEB2020:04:30:00,3.1,12.54,9.6,8.6,7.2,8.8,4.1,69,72,66,0.150,-0.8,0.2,-3.4,11.33,9.7,311,5.8,12.9,0.00004,0.00005,29.0,30.1,11,0,0,0.0,5.83,0.00,0.00
15min,AgWx,bigpiney,439,25FEB2020:04:45:00,4.1,12.54,10.3,9.6,9.4,9.8,8.6,66,67,66,0.156,0.4,0.7,-0.3,13.15,12.7,307,4.3,14.8,0.00006,0.00007,29.0,30.1,11,0,0,0.0,5.83,0.00,0.00
15min,AgWx,bigpiney,439,25FEB2020:05:00:00,5.2,12.53,9.0,8.4,9.2,9.7,8.3,66,67,66,0.150,0.2,0.6,-0.5,11.05,12.0,310,4.4,14.2,0.00006,0.00007,29.0,30.2,11,0,0,0.0,5.83,0.00,0.00
15min,AgWx,bigpiney,439,25FEB2020:05:15:00,6.0,12.52,8.0,7.9,8.3,8.4,7.9,68,68,67,0.148,-0.2,0.0,-0.5,9.36,11.0,313,4.6,12.3,0.00005,0.00006,29.0,30.2,11,0,0,0.0,5.83,0.00,0.00
15min,AgWx,bigpiney,439,25FEB2020:05:30:00,6.2,12.51,9.6,8.5,5.4,8.5,3.2,71,75,65,0.155,-2.1,0.9,-4.7,12.58,9.3,324,13,14.0,0.00003,0.00004,29.0,30.2,11,0,0,0.0,5.83,0.00,0.00
15min,AgWx,bigpiney,439,25FEB2020:05:45:00,6.4,12.51,9.1,8.7,9.0,9.3,8.5,67,69,66,0.151,0.2,0.5,-0.2,11.27,12.5,310,4.3,14.3,0.00006,0.00007,29.0,30.2,11,0,0,0.0,5.83,0.00,0.00
15min,AgWx,bigpiney,439,25FEB2020:06:00:00,6.8,12.48,8.5,8.0,8.1,8.7,7.6,68,69,67,0.149,-0.4,-0.1,-1.0,10.48,11.0,314,4.5,12.7,0.00005,0.00006,29.0,30.1,11,0,0,0.0,5.83,0.00,0.00
15min,AgWx,bigpiney,439,25FEB2020:06:15:00,6.9,12.49,6.2,6.0,7.0,8.0,6.0,68,69,68,0.139,-1.3,-0.4,-1.9,10.46,10.0,312,5.0,11.7,0.00004,0.00005,29.0,30.2,11,0,0,0.0,5.83,0.00,0.00
15min,AgWx,bigpiney,439,25FEB2020:06:30:00,6.7,12.48,6.3,5.8,6.1,6.4,5.7,70,70,69,0.137,-1.7,-1.4,-2.1,6.379,8.9,303,2.8,10.9,0.00003,0.00004,29.0,30.2,11,0,0,0.0,5.83,0.00,0.00
15min,AgWx,bigpiney,439,25FEB2020:06:45:00,6.3,12.47,5.1,4.5,5.1,5.9,4.3,69,70,69,0.130,-2.8,-1.9,-3.5,10.87,8.6,305,4.2,11.0,0.00003,0.00004,29.0,30.2,11,0,0,0.0,5.83,0.00,0.00
15min,AgWx,bigpiney,439,25FEB2020:07:00:00,5.8,12.49,4.6,4.3,4.3,4.5,3.9,70,70,69,0.130,-3.4,-3.0,-3.8,10.26,10.4,302,4.3,12.5,0.00003,0.00004,29.0,30.2,11,2,0,0.0,5.83,0.00,0.00
15min,AgWx,bigpiney,439,25FEB2020:07:15:00,5.3,12.84,2.5,2.3,3.1,4.2,2.3,70,71,69,0.119,-4.3,-3.4,-5.1,4.406,7.3,297,3.3,10.0,0.00002,0.00003,29.0,30.2,11,16,0,0.0,5.83,0.00,0.00
15min,AgWx,bigpiney,439,25FEB2020:07:30:00,4.8,15.02,3.2,2.6,2.2,2.6,1.8,71,72,71,0.123,-4.9,-4.4,-5.4,3.135,4.5,298,5.7,6.4,0.00000,0.00005,29.0,30.2,11,50,0,0.0,5.83,0.00,0.00
15min,AgWx,bigpiney,439,25FEB2020:07:45:00,4.7,14.99,8.3,7.7,5.0,7.7,2.7,68,72,64,0.138,-3.2,-1.9,-4.4,3.223,1.5,288,13,3.2,0.00002,0.00005,29.0,30.2,11,87,0,0.0,5.83,0.00,0.00
15min,AgWx,bigpiney,439,25FEB2020:08:00:00,5.6,14.99,7.5,7.2,8.0,8.8,7.2,62,64,61,0.132,-2.4,-1.8,-2.9,3.573,3.6,288,13,5.4,0.00016,0.00024,29.0,30.2,11,128,0,0.0,5.83,0.00,0.00
15min,AgWx,bigpiney,439,25FEB2020:08:15:00,7.1,14.98,7.6,7.4,7.4,7.7,6.9,63,64,62,0.135,-2.6,-2.2,-3.0,0.965,2.5,274,8.0,4.5,0.00023,0.00029,29.0,30.2,11,171,0,0.0,5.83,0.00,0.00
15min,AgWx,bigpiney,439,25FEB2020:08:30:00,8.6,15.15,7.5,6.5,6.1,7.5,4.2,64,66,62,0.128,-3.5,-2.3,-5.7,2.631,2.8,73,25,5.5,0.00032,0.00039,29.0,30.2,11,218,0,0.0,5.83,0.00,0.00
15min,AgWx,bigpiney,439,25FEB2020:08:45:00,10.1,15,5.6,5.4,6.0,7.6,4.6,63,65,62,0.126,-3.8,-2.1,-4.9,4.406,3.5,115,25,6.4,0.00041,0.00050,28.9,30.1,11,265,0,0.0,5.83,0.00,0.00
15min,AgWx,bigpiney,439,25FEB2020:09:00:00,11.2,14.75,9.9,10.4,7.8,10.6,5.0,62,65,58,0.141,-2.5,-1.0,-4.3,1.907,3.8,149,15,5.4,0.00053,0.00063,28.9,30.2,11,311,0,0.0,5.83,0.00,0.00